ECMWFFLT1_925_spd_057.txt.gz
Wind_Speed
22 26 23 23 22 20 19 18 17 15 14 15 14 15 16 15 17 17 16 15 15 15 15 14 13 13 14 15 14 13 13 12 13 16 18 16 15 13 10 8 5 12 18 12 11 13 5 2 5 5 8 10 11 12 12 13 14 13 14 16 17 16 15
20 22 21 22 23 22 20 19 17 16 15 14 13 16 17 16 17 17 17 16 13 14 16 15 14 14 13 14 15 14 13 13 13 15 16 16 15 14 13 11 10 13 13 10 14 16 8 5 4 3 7 8 7 10 12 13 14 13 14 16 16 15 14
18 19 20 21 23 22 20 19 18 17 17 16 16 17 16 14 15 16 16 16 14 14 15 15 15 14 13 13 15 15 14 13 14 14 15 14 13 14 15 14 14 14 12 9 12 13 10 8 5 5 10 10 7 9 12 13 13 13 14 15 16 15 14
20 22 22 22 22 21 20 19 19 19 19 19 18 18 16 15 15 15 14 14 13 13 13 13 14 13 13 14 15 15 15 13 13 14 14 15 14 13 15 16 17 17 15 12 14 16 13 9 7 7 10 12 11 13 14 13 13 15 16 16 17 17 15
23 24 25 24 23 22 21 20 19 20 20 19 20 18 17 16 15 15 14 14 14 13 12 13 14 13 13 14 15 15 14 12 13 14 14 15 15 14 14 15 16 17 15 15 18 19 17 17 15 10 10 14 10 11 16 15 14 17 19 19 19 18 14
25 25 26 25 23 23 23 21 20 21 21 20 20 19 18 16 16 16 14 14 16 13 11 13 14 13 13 13 15 15 14 13 12 13 14 14 15 14 14 15 15 14 13 13 17 18 17 22 22 13 13 16 11 12 16 15 16 18 19 19 17 16 14
27 25 26 25 23 23 23 22 21 23 23 21 20 19 18 18 17 16 15 14 16 14 12 14 14 13 13 12 14 15 15 14 13 12 13 13 13 12 13 15 15 14 12 13 16 17 18 23 23 18 15 13 11 13 13 14 17 17 16 17 16 15 12
30 27 26 24 22 22 23 23 23 23 23 21 19 19 19 19 18 17 16 14 15 15 14 15 14 14 14 12 14 14 14 15 14 13 13 12 12 12 12 14 14 13 13 14 15 16 18 23 25 25 20 11 7 9 9 12 16 17 18 18 17 17 14
33 29 26 24 22 22 23 23 24 24 23 21 20 19 19 19 18 18 17 14 15 16 14 14 14 15 15 14 15 15 14 14 14 13 13 13 13 12 12 13 14 14 15 15 16 14 16 22 25 25 25 17 10 6 6 8 10 12 19 20 15 15 15
33 32 29 27 23 23 23 23 24 24 22 21 21 19 18 17 18 18 17 16 16 15 14 13 13 14 14 14 14 14 13 12 12 13 12 13 14 12 12 13 13 14 14 14 16 15 15 20 24 22 22 23 18 9 5 5 6 9 18 22 18 14 15
29 31 31 29 26 25 23 22 23 23 21 22 21 19 18 18 18 17 17 17 16 14 14 13 13 13 12 12 12 13 13 12 11 12 11 11 14 13 12 13 12 13 13 12 15 16 16 19 22 20 17 21 22 16 11 7 5 12 20 21 19 17 17
26 28 29 28 26 27 25 22 24 23 23 23 22 20 19 18 17 17 17 17 16 15 13 11 13 14 11 10 11 11 13 12 11 11 11 10 12 13 13 13 13 13 12 12 14 16 17 17 19 19 15 15 16 14 17 13 5 13 24 23 19 19 18
24 26 27 26 26 26 25 24 25 25 25 24 22 20 19 18 17 17 17 16 16 15 12 11 13 13 10 10 10 10 12 12 11 12 11 10 10 12 14 14 14 14 12 13 14 16 17 16 17 19 16 14 11 6 15 20 11 11 22 24 21 19 17
23 24 26 27 26 25 25 27 27 26 25 24 22 20 19 18 16 15 16 16 15 14 12 11 12 12 11 10 10 10 10 11 11 11 11 10 10 12 13 13 14 14 12 12 15 16 17 15 15 17 15 15 11 5 13 24 17 12 18 22 21 20 18
23 24 26 28 27 25 26 28 27 26 25 22 21 19 18 19 16 15 16 15 15 14 11 10 11 12 11 9 10 11 10 11 11 11 11 11 11 11 11 11 14 14 12 12 14 15 16 15 14 16 16 15 12 7 12 21 19 16 18 21 22 22 21
23 24 27 28 27 26 28 27 25 24 22 20 20 18 18 18 16 16 16 14 14 13 11 10 10 11 10 8 10 11 9 10 11 11 13 12 12 12 10 10 13 14 12 11 13 13 14 15 14 16 16 15 15 9 9 17 19 19 21 22 24 25 23
25 24 27 28 28 28 28 25 23 21 19 19 20 19 18 18 16 16 15 13 14 14 12 11 9 10 10 9 10 9 7 9 11 11 12 11 12 13 11 11 13 14 13 12 12 12 13 13 13 15 16 15 16 11 9 17 22 22 24 23 24 26 24
26 26 26 26 29 31 27 25 23 20 20 20 20 19 18 16 16 15 14 14 15 14 12 10 9 9 10 8 8 7 7 9 10 9 8 8 12 13 11 11 12 13 14 13 12 11 12 13 12 14 14 15 17 13 10 17 22 23 27 27 25 25 23
24 25 24 20 26 31 28 26 23 22 22 21 20 20 18 16 15 14 14 16 17 14 11 9 8 10 10 8 8 8 7 8 9 9 8 9 12 12 9 8 8 10 13 14 13 11 12 13 14 14 13 15 16 13 12 19 23 24 27 28 27 26 24
18 22 24 18 24 32 29 26 25 22 21 20 21 21 18 16 15 13 15 19 17 14 12 9 8 11 11 9 8 9 9 8 9 8 8 10 12 10 7 5 5 8 11 12 13 10 10 13 15 14 13 14 13 10 15 23 25 25 26 25 25 25 25
15 20 24 20 23 31 28 26 25 22 20 20 21 21 17 16 16 15 17 19 18 16 13 10 10 12 11 9 9 10 9 8 8 9 9 9 10 9 6 4 4 6 9 12 12 9 8 12 14 11 10 12 11 11 19 25 24 24 25 23 22 23 25
17 19 24 22 24 29 28 26 24 21 20 20 19 18 17 16 17 18 20 20 19 17 15 13 12 11 10 11 10 9 8 6 6 7 8 8 8 7 7 6 5 6 9 10 10 7 6 9 10 7 6 9 12 14 19 21 22 24 24 22 21 21 22
17 16 22 24 22 25 26 24 22 22 21 20 18 17 17 17 19 21 22 21 20 18 16 14 14 12 12 12 11 8 7 6 4 3 5 8 10 9 8 8 8 8 9 9 8 7 7 7 6 6 6 7 9 12 13 12 14 19 19 17 18 18 19
19 17 23 24 22 24 25 23 23 22 20 20 18 17 19 21 22 22 22 20 19 18 16 14 13 13 12 12 11 9 6 6 6 3 2 7 10 11 10 9 9 8 8 8 7 6 6 6 5 5 6 7 7 8 8 7 6 7 7 7 8 10 13
22 21 24 25 24 26 25 23 22 20 19 22 21 19 21 23 23 21 20 19 18 16 15 13 12 12 12 12 12 9 7 5 5 4 5 7 11 12 12 12 11 10 9 7 7 6 5 4 3 3 3 4 3 3 3 2 1 1 0 1 1 1 3
23 22 21 20 23 26 26 24 24 22 23 25 24 23 23 22 21 20 18 17 16 15 13 12 11 11 10 11 12 10 8 6 4 5 9 11 11 12 13 15 14 12 10 8 7 6 5 3 2 2 1 1 2 2 2 4 4 5 6 7 7 6 4
24 23 21 20 22 26 27 26 27 26 26 25 24 23 22 21 21 19 17 16 16 15 13 11 10 10 9 9 9 9 9 10 9 11 14 15 13 11 12 14 14 12 9 8 6 5 5 4 3 2 1 1 1 1 2 3 5 7 9 10 12 13 12
27 26 26 25 25 27 28 27 27 27 27 26 24 23 21 21 21 19 17 16 15 14 13 11 9 9 8 8 8 8 8 10 11 12 13 13 14 14 12 13 14 12 8 7 6 5 5 5 4 3 3 3 2 1 1 2 4 7 9 10 11 13 14
29 28 27 27 27 28 28 28 27 28 29 28 25 23 22 21 20 20 18 15 15 15 13 11 10 9 9 9 9 8 8 8 9 10 11 12 13 15 14 12 12 11 8 8 7 6 6 5 5 5 4 3 3 1 1 2 4 6 7 9 10 11 13
29 29 27 28 27 26 28 28 27 28 29 27 23 22 21 20 19 19 17 15 15 16 14 12 11 10 10 10 10 10 10 11 13 13 13 13 13 14 13 11 10 10 8 8 8 6 4 3 2 3 1 0 1 1 1 3 4 5 6 7 8 9 12
30 30 28 26 25 24 26 27 25 25 27 26 23 22 21 21 20 19 18 17 15 15 15 14 11 10 10 9 10 12 14 16 17 16 14 14 13 13 12 10 9 8 8 8 7 5 4 3 3 4 4 4 5 5 6 7 8 9 10 10 10 11 13
31 30 28 25 23 23 24 25 24 24 25 25 23 22 20 21 21 19 18 18 16 15 15 14 12 10 10 8 8 11 14 18 20 18 15 13 13 12 12 11 10 9 8 8 7 7 7 6 7 7 8 9 10 10 11 13 14 16 17 17 17 18 18
31 30 28 25 23 22 22 24 24 25 25 24 22 21 19 20 21 20 18 17 17 16 16 15 14 12 10 9 8 7 9 14 18 18 15 13 11 11 11 11 11 10 8 8 8 8 9 9 10 10 11 12 13 14 15 16 16 16 18 19 19 20 21
30 29 27 25 24 23 22 23 24 25 25 23 22 22 21 21 22 22 19 18 19 18 17 17 16 15 13 12 11 9 9 12 14 15 14 12 10 9 10 10 10 9 9 10 10 11 12 11 11 11 11 11 11 12 14 14 14 13 13 13 13 14 15
27 26 25 24 24 23 23 23 23 24 24 23 23 23 21 20 20 21 20 19 19 18 18 17 17 17 16 15 14 13 13 13 12 12 12 10 8 8 10 10 10 10 11 11 11 11 11 10 9 9 9 9 10 10 11 11 11 10 10 10 11 12 13
27 26 24 22 21 20 18 17 18 19 19 19 20 20 18 18 18 20 21 21 20 18 18 17 17 17 17 16 15 14 14 13 11 10 10 9 7 6 8 9 9 9 9 10 10 11 11 12 13 13 13 13 13 13 12 11 10 10 10 10 10 11 13
25 25 24 23 21 21 19 16 15 15 14 13 13 15 16 16 16 19 21 22 20 18 16 16 16 17 17 16 14 12 12 12 10 9 10 10 9 8 8 8 9 10 11 12 12 12 13 14 15 15 15 15 15 16 16 14 12 12 12 11 9 9 11

ECMWFFLT1_925_spd_060.txt.gz
Wind_Speed
29 29 27 24 23 23 23 23 24 24 23 22 20 20 20 19 18 19 20 20 21 19 17 17 18 19 19 19 19 19 19 21 21 22 22 23 23 17 12 10 6 7 16 14 11 10 5 2 4 6 9 11 11 11 13 14 13 12 12 14 13 12 12
31 29 27 25 23 25 24 23 24 24 23 21 20 20 19 18 19 19 19 20 20 19 18 17 18 19 19 20 20 19 19 20 19 20 21 23 23 18 14 9 6 14 15 9 12 13 6 4 3 3 7 10 10 12 15 14 12 12 13 14 14 12 11
29 27 25 25 25 26 25 24 24 24 23 21 20 20 19 19 19 18 19 20 19 19 18 17 18 19 18 19 20 19 19 19 19 20 21 22 23 20 16 13 14 19 13 6 12 14 8 6 3 4 9 9 9 12 15 15 13 13 14 15 14 13 11
28 27 25 25 26 26 25 25 25 23 23 22 20 20 20 19 19 19 19 19 18 17 18 19 19 19 18 18 19 18 19 18 18 19 20 21 22 20 18 17 18 21 17 12 16 18 13 8 5 5 9 11 10 12 15 15 14 13 14 16 14 13 11
28 28 28 27 27 27 26 25 24 21 21 21 20 20 21 20 20 20 20 19 17 17 19 20 19 19 18 18 18 19 19 19 18 18 19 20 20 20 20 19 18 21 20 17 20 22 19 16 12 8 10 12 8 9 15 15 14 15 16 17 15 13 11
29 28 29 29 29 29 28 26 24 22 21 22 20 20 21 21 21 20 20 19 18 17 18 19 19 18 17 18 19 20 19 19 18 18 19 20 19 18 19 20 18 19 19 17 19 22 19 18 17 12 11 12 7 9 14 13 13 16 18 19 16 13 13
27 25 26 28 29 29 29 27 26 24 24 24 23 23 23 22 20 19 18 18 18 17 17 18 18 18 17 17 18 19 19 18 17 17 18 18 18 17 18 19 19 17 18 16 17 20 20 19 20 17 13 9 6 9 11 11 14 15 16 19 19 16 15
24 23 23 25 28 30 29 28 26 24 25 26 25 24 24 21 19 19 18 18 18 17 17 19 19 19 17 17 17 18 18 17 16 16 17 17 18 18 17 18 19 17 17 16 16 20 21 19 21 24 20 10 5 6 7 9 13 15 17 20 21 20 18
25 26 25 25 27 30 29 28 26 25 25 26 25 25 23 21 20 21 20 20 20 17 17 19 20 19 17 16 17 19 18 17 16 16 16 16 17 17 16 16 18 18 17 15 16 19 21 20 21 26 26 19 10 5 4 6 7 9 17 21 20 21 20
25 28 27 26 28 29 29 28 27 26 26 26 26 24 22 21 22 22 21 21 21 18 18 19 18 18 17 16 18 19 18 17 16 16 16 16 15 15 15 16 18 17 16 15 16 18 18 20 23 26 28 27 20 10 4 5 5 7 16 21 19 21 22
23 26 27 28 28 28 29 29 29 28 28 27 25 24 23 22 23 22 21 21 20 19 18 18 18 18 17 16 17 18 17 17 17 16 17 16 15 15 14 16 17 16 16 16 17 17 16 19 24 26 27 27 23 17 12 7 5 10 18 21 18 20 22
23 25 26 28 29 29 31 32 32 31 30 27 25 24 24 24 24 23 21 21 21 20 18 17 17 18 17 17 17 17 16 16 17 18 17 16 16 16 14 15 16 15 16 17 16 16 15 17 23 26 26 26 23 20 19 14 6 10 20 24 21 20 21
25 25 26 29 30 30 30 32 33 33 31 28 27 26 25 25 25 23 23 22 21 19 18 17 17 17 17 17 17 17 17 17 17 18 18 16 16 17 16 15 15 15 16 16 16 18 17 17 22 25 24 25 24 21 20 17 10 9 19 25 24 22 21
28 28 31 32 25 19 21 27 31 34 32 30 28 27 26 25 24 23 24 22 20 18 17 17 17 16 16 16 17 17 18 18 18 17 17 16 15 17 16 16 16 16 16 15 15 17 19 18 21 24 21 20 23 22 21 21 14 11 15 20 22 22 21
29 30 32 30 20 15 20 25 29 34 33 31 29 27 27 25 23 24 24 21 20 18 16 17 18 16 15 15 17 18 19 19 17 16 16 16 15 15 16 16 16 16 16 16 15 16 19 19 19 22 20 17 19 20 22 24 21 15 16 18 20 22 21
28 30 31 26 21 21 23 24 29 34 33 31 30 28 26 25 24 23 22 21 21 18 16 18 18 16 15 15 15 17 18 18 18 17 17 16 14 14 15 15 16 17 16 16 15 16 18 19 18 18 19 18 19 17 17 23 24 21 19 18 20 22 23
27 29 26 20 20 22 21 21 27 32 33 31 30 28 25 24 24 23 23 23 21 18 17 19 19 17 15 15 15 16 17 17 17 17 16 15 14 14 14 14 15 17 17 16 15 16 17 18 18 18 18 17 18 16 14 19 25 24 22 20 21 24 24
25 26 21 15 19 23 22 22 24 29 32 31 28 27 25 23 23 23 24 24 22 19 18 19 19 18 15 15 16 16 16 16 16 15 15 15 14 13 13 13 13 16 18 16 15 16 16 17 17 17 17 16 18 18 15 16 23 24 23 24 24 23 23
23 23 18 14 20 24 25 26 25 26 30 29 27 26 25 24 24 24 24 23 22 21 19 18 18 17 15 15 16 15 14 16 15 15 15 15 14 13 12 12 13 15 17 17 16 16 15 15 15 16 15 14 15 17 13 14 21 23 23 25 25 23 24
23 23 17 15 22 25 27 29 27 25 26 27 27 26 25 24 24 24 24 23 23 22 19 17 17 18 16 14 14 13 13 15 15 15 15 15 14 13 11 11 12 14 17 17 16 16 15 14 15 15 14 11 13 16 14 13 18 22 23 24 24 24 25
21 23 19 19 25 28 28 29 28 26 26 26 26 26 25 24 24 24 25 25 23 22 19 16 17 18 15 14 13 13 13 15 16 16 16 15 15 13 10 9 10 12 14 16 15 15 14 14 14 16 15 11 12 18 18 15 16 21 23 24 24 24 24
19 21 23 24 27 28 25 27 29 27 27 27 26 26 24 22 23 25 26 25 22 20 18 17 18 17 15 14 15 14 14 15 16 17 18 17 15 12 9 6 7 9 11 12 13 12 11 12 12 14 15 12 13 17 17 15 17 22 24 23 23 22 20
19 20 25 27 28 26 24 28 29 26 28 29 27 26 24 22 25 27 26 24 22 19 18 18 18 17 15 15 15 14 14 14 15 17 18 17 15 12 9 7 7 8 9 9 11 9 7 8 8 8 9 9 11 14 13 13 17 22 23 22 21 20 19
19 19 25 29 28 27 26 29 29 24 27 31 28 27 27 26 27 27 25 23 22 20 19 18 18 17 16 16 14 13 13 12 13 16 16 16 16 14 12 10 9 9 10 10 10 9 9 8 8 7 6 5 4 4 8 12 17 19 20 19 18 18 19
21 19 25 29 28 26 26 28 28 26 30 32 29 29 29 29 28 26 25 24 22 21 20 18 18 17 17 17 15 13 12 11 12 14 16 16 17 16 14 13 11 10 10 11 10 9 10 10 9 9 10 10 10 7 5 8 11 12 12 12 12 12 13
25 22 25 29 26 24 26 28 28 29 32 32 31 32 32 31 30 27 24 23 22 21 20 18 18 16 15 15 15 14 12 10 11 14 17 18 18 17 15 14 13 11 9 9 9 10 11 10 8 9 9 8 8 9 8 8 8 8 7 7 6 6 5
25 25 26 28 26 26 27 29 29 31 34 34 33 34 32 31 30 26 23 22 20 20 19 17 16 16 15 15 15 14 12 13 15 16 18 18 18 17 16 15 14 12 10 9 9 10 11 10 9 8 8 7 6 6 7 7 7 7 6 5 5 4 3
15 24 28 28 27 28 29 30 30 31 34 35 34 34 32 30 29 25 22 20 19 18 16 14 14 14 15 16 17 16 16 18 20 19 19 19 18 18 17 15 14 13 11 10 10 10 10 10 10 10 10 9 8 6 6 7 7 7 7 6 6 5 3
12 17 28 30 28 28 29 30 32 34 34 34 33 32 31 29 28 26 22 19 19 18 15 13 13 13 14 16 18 19 20 21 22 21 21 20 19 18 16 14 13 12 11 11 11 10 9 9 9 10 11 10 9 8 7 7 7 7 7 6 6 6 6
17 14 26 31 28 28 28 27 30 34 36 34 33 31 30 29 28 27 24 21 20 20 18 15 13 14 15 15 17 20 21 22 24 24 23 22 20 19 16 14 13 12 12 11 10 9 8 6 7 8 8 7 6 5 5 5 4 4 5 5 6 7 8
23 17 23 30 28 28 28 25 26 32 36 35 34 31 30 30 29 27 26 24 22 21 20 17 15 16 17 17 19 21 22 24 25 25 23 21 19 18 16 14 13 12 12 11 10 8 7 5 5 5 4 4 4 4 5 4 5 5 6 7 7 8 9
28 23 23 28 29 29 28 27 27 30 33 34 33 32 31 31 31 29 27 25 23 22 21 19 17 18 18 19 21 22 23 24 25 24 22 20 18 17 15 14 13 12 11 10 9 7 6 5 4 4 4 4 5 6 7 8 9 9 10 10 10 10 10
31 29 28 28 29 30 29 28 28 29 30 32 32 31 31 33 33 30 28 27 25 23 22 20 18 18 19 19 20 22 23 24 24 23 21 19 18 16 14 13 12 11 10 9 8 8 7 6 5 5 4 4 5 5 6 6 7 7 7 7 7 7 7
30 30 29 30 31 30 29 28 27 26 27 29 32 32 32 33 33 31 29 28 27 25 23 21 19 17 17 17 17 18 19 21 21 20 18 17 15 14 13 12 11 11 10 9 8 8 7 7 6 5 5 5 6 5 5 5 4 4 5 6 6 6 7
30 28 28 28 29 27 26 25 26 25 25 26 30 32 32 33 33 31 28 27 26 25 22 20 19 18 16 15 14 14 15 16 14 12 12 13 12 11 11 11 11 11 11 11 10 10 9 9 9 9 9 9 8 7 7 7 7 7 7 7 7 8 10
30 29 27 26 26 24 22 21 21 22 22 23 26 30 32 33 32 30 28 26 25 24 22 20 18 17 16 15 14 14 14 13 10 8 9 11 11 10 11 12 13 13 13 13 13 13 14 13 13 13 13 12 11 9 8 7 8 8 8 9 9 10 12
25 26 25 24 24 24 22 20 19 17 16 17 19 23 28 30 30 28 26 23 22 21 20 18 16 15 14 13 13 14 14 13 11 10 11 13 13 13 14 14 14 14 14 15 17 17 17 16 15 14 13 12 12 11 10 9 9 10 11 11 11 12 13

ECMWFFLT1_925_spd_063.txt.gz
Wind_Speed
27 26 27 26 25 23 22 22 21 22 23 25 27 26 26 27 25 25 26 27 27 25 23 23 23 23 23 23 22 21 21 22 22 22 24 22 19 19 15 10 6 5 10 12 11 8 4 2 4 6 7 8 9 9 10 10 10 10 9 10 9 6 5
26 24 25 25 24 23 23 22 22 23 25 26 27 26 26 26 24 24 26 27 27 25 23 22 22 23 24 23 23 22 21 22 21 19 21 22 21 20 17 12 7 8 10 8 11 10 5 3 3 3 6 8 8 10 11 11 11 10 9 10 9 7 7
23 20 22 23 23 22 23 23 23 23 25 26 25 23 23 23 22 22 24 27 26 24 23 22 21 23 24 23 22 22 21 21 21 20 18 19 20 20 19 15 11 12 10 6 10 11 6 5 3 3 8 8 6 10 11 12 12 10 9 10 10 9 8
22 20 20 21 22 22 23 23 21 21 23 26 25 21 20 21 22 22 24 26 25 23 23 21 21 22 23 22 21 21 22 21 21 21 19 19 20 21 20 17 15 15 14 11 15 16 11 7 5 5 8 9 7 10 12 12 11 10 9 10 11 10 9
21 21 20 20 22 22 22 20 20 22 24 26 25 22 21 22 23 23 24 25 25 23 22 22 21 21 21 22 21 21 21 21 21 21 21 20 21 23 22 19 17 16 17 16 17 19 16 13 11 7 8 10 7 7 11 11 10 9 10 11 11 10 9
21 21 21 21 22 22 22 21 21 23 25 25 25 24 24 24 25 25 24 25 24 22 22 22 21 20 21 21 21 21 20 20 21 21 21 21 22 23 22 20 17 16 17 15 14 17 16 15 14 10 9 10 6 5 9 11 10 9 10 12 12 11 11
22 23 23 23 23 22 22 23 24 24 25 26 27 26 25 25 25 24 24 24 23 22 22 22 21 21 21 20 19 21 21 21 21 20 20 19 20 21 21 21 19 17 18 16 13 14 16 16 15 14 12 7 5 7 7 9 10 10 11 14 15 14 13
23 24 25 24 24 24 23 23 25 26 26 27 28 26 24 24 23 21 23 24 23 22 21 21 22 21 20 20 19 20 21 21 21 20 18 18 18 19 19 19 19 18 18 17 14 14 17 18 16 18 18 10 3 4 5 6 9 12 14 15 17 17 15
23 24 24 23 24 24 23 24 25 27 28 28 27 26 24 23 23 22 23 25 23 22 21 21 22 22 20 20 19 19 20 21 21 19 18 17 17 18 17 17 17 18 17 16 15 14 16 18 16 18 22 18 9 4 3 4 6 10 14 16 17 19 18
24 25 25 24 24 23 21 22 24 25 28 29 27 26 25 24 25 24 24 24 22 22 22 21 21 21 20 20 19 19 20 21 20 19 18 17 17 17 17 16 16 16 16 16 16 15 16 18 18 17 22 25 19 9 4 3 6 9 13 16 18 19 20
24 26 26 24 24 22 19 19 21 21 21 23 26 27 26 25 25 25 23 22 22 22 21 21 21 21 21 20 19 19 19 20 19 18 17 16 15 15 16 16 15 14 16 16 17 16 16 19 19 19 22 25 23 17 11 6 6 11 14 17 19 19 19
26 28 27 23 20 19 19 19 21 20 17 17 19 23 26 27 26 25 24 23 22 22 21 21 21 21 21 21 19 19 19 19 19 18 16 15 15 14 14 14 14 13 15 16 15 15 16 18 19 20 22 24 23 21 18 11 5 10 16 18 20 20 17
28 29 26 21 19 20 20 21 23 24 21 19 19 20 24 28 27 25 25 24 24 23 21 21 21 21 21 20 19 19 20 19 18 18 17 15 15 14 14 13 13 13 14 15 15 14 15 16 17 19 22 24 23 19 17 14 7 8 15 18 18 20 18
27 28 20 18 23 23 19 19 21 22 21 22 23 23 24 27 27 26 25 25 24 23 22 22 22 21 21 20 19 19 20 19 18 18 17 16 16 15 14 13 13 13 14 15 15 16 15 15 15 17 21 23 24 20 17 15 10 7 12 15 16 18 19
25 25 17 17 22 20 16 16 18 20 20 22 25 25 26 27 26 26 25 24 24 23 22 22 21 21 21 20 20 20 20 19 19 18 17 17 17 16 15 14 14 14 14 14 15 16 16 16 14 17 21 23 24 23 19 17 14 10 10 14 15 17 18
20 22 19 19 20 17 18 19 19 21 23 24 27 27 27 28 27 26 25 24 23 23 22 21 21 20 20 20 21 21 20 20 20 19 18 17 18 17 15 16 16 15 15 15 15 15 16 16 15 16 19 22 22 23 22 19 17 15 14 14 16 18 19
17 20 21 21 21 20 20 22 22 24 25 26 27 27 26 27 27 26 25 25 24 23 22 21 21 20 19 19 20 20 20 20 20 19 18 17 17 16 15 16 17 17 17 17 16 16 15 15 17 17 18 20 20 20 20 20 20 19 18 17 18 20 20
16 19 21 22 22 23 23 23 23 25 26 26 27 26 25 26 27 26 26 26 25 23 21 21 22 21 19 18 18 19 19 20 20 19 18 17 16 16 16 16 16 16 17 18 17 16 16 16 17 18 19 21 20 18 18 19 21 21 21 21 20 20 20
14 18 21 22 21 22 25 25 24 25 27 28 27 26 24 25 26 26 26 27 26 23 20 21 21 21 20 18 17 18 19 19 19 18 17 16 15 15 15 14 14 15 16 17 17 16 16 16 17 17 18 20 21 19 18 19 19 21 23 23 22 20 20
14 16 20 20 20 21 25 27 26 26 29 29 28 27 26 26 27 28 27 27 25 23 21 21 21 20 19 18 17 17 17 17 17 17 16 15 15 15 14 13 13 14 15 16 16 16 15 16 17 18 17 18 19 19 19 18 16 18 21 22 20 20 20
14 15 17 19 19 20 23 26 27 27 29 30 30 29 27 27 28 28 27 26 24 22 22 22 21 20 19 18 18 18 17 17 16 16 15 14 15 14 13 12 11 12 13 14 15 15 15 15 17 18 17 16 18 20 19 16 12 14 19 20 18 19 19
14 14 15 18 19 20 22 25 26 27 28 28 29 29 27 27 28 27 26 26 24 23 22 22 21 21 19 17 17 17 16 16 16 16 16 15 15 15 14 12 11 11 11 12 13 14 14 13 14 16 16 15 16 18 19 18 13 12 16 19 17 16 16
13 13 14 19 22 22 25 26 25 26 28 28 28 29 29 27 27 27 26 25 24 23 22 21 20 20 18 17 16 15 14 14 16 16 16 16 16 16 14 12 10 10 9 10 11 11 11 11 11 11 11 12 14 14 18 22 19 15 16 19 19 17 16
12 14 15 20 24 25 27 29 28 29 31 30 29 31 31 29 28 27 27 26 25 24 23 21 20 19 17 15 15 14 14 15 16 16 16 17 16 15 13 11 9 8 7 7 8 9 10 10 10 10 10 12 14 15 17 21 22 20 20 20 19 19 19
12 14 17 20 26 28 29 31 33 33 32 31 30 31 32 31 30 29 29 28 25 23 22 20 20 19 17 16 15 15 16 16 17 18 18 17 17 15 12 10 8 8 8 8 9 9 10 11 11 10 9 11 13 15 16 19 21 22 21 19 17 18 19
14 10 18 22 26 29 31 34 35 33 30 30 31 32 32 31 31 31 30 29 25 22 21 21 20 20 19 18 17 16 17 17 18 19 18 17 16 14 12 11 11 11 11 12 13 13 13 14 14 14 14 15 14 12 10 9 10 12 14 16 16 14 12
19 9 12 21 27 30 30 32 33 30 30 32 32 33 33 32 32 31 30 29 26 23 22 21 21 21 20 19 18 17 17 18 19 18 17 16 15 14 13 12 12 12 12 12 12 13 14 15 16 16 16 17 18 16 14 12 10 9 8 9 11 10 8
25 18 5 8 19 27 29 28 29 29 30 32 32 33 35 33 31 30 28 27 27 25 23 21 21 21 21 20 19 18 18 19 19 18 16 16 15 14 13 12 12 12 12 11 11 11 12 13 13 13 13 14 14 13 12 10 9 8 9 9 9 9 9
29 24 15 7 2 16 28 29 28 28 28 29 30 32 33 32 30 28 26 25 26 25 22 20 20 20 21 21 20 20 19 20 20 19 18 18 17 16 15 14 14 14 13 13 12 11 11 11 13 13 13 14 14 13 13 12 10 9 8 8 8 7 5
30 29 23 17 13 7 21 29 26 27 27 26 28 31 32 29 27 26 25 23 24 24 22 20 19 18 19 21 20 20 20 21 21 22 21 20 19 18 17 16 16 16 17 16 15 14 13 13 14 14 15 15 14 14 13 12 11 10 9 8 7 7 6
29 31 29 24 19 13 16 25 27 28 28 25 26 30 31 29 27 25 23 22 21 22 22 20 20 20 19 20 21 20 21 23 24 24 23 22 20 19 18 17 16 16 17 17 15 14 12 12 13 13 14 14 14 13 12 10 9 9 9 8 9 9 9
30 30 31 28 23 17 17 23 27 29 28 26 27 29 30 30 28 26 24 22 20 21 21 21 21 22 21 21 21 22 23 25 26 25 23 22 20 18 17 16 15 14 14 14 12 11 9 9 9 10 10 10 11 11 11 9 9 9 10 10 11 10 10
29 30 30 30 27 21 20 24 28 30 29 27 29 30 30 30 30 28 26 25 23 22 21 20 20 21 23 23 24 24 25 26 26 25 23 21 20 18 17 15 14 12 11 10 9 8 7 6 6 7 6 6 8 10 9 9 10 11 11 12 12 10 10
27 29 29 29 28 24 22 24 28 30 30 29 30 31 30 30 31 29 28 27 27 25 22 20 18 19 21 23 24 25 25 25 25 24 22 20 18 17 16 14 13 12 10 9 8 7 7 7 6 6 6 6 8 9 9 9 10 11 11 12 11 10 10
27 28 29 29 28 25 23 25 29 31 31 31 31 31 29 28 29 30 28 28 28 27 24 22 20 19 19 20 21 22 23 23 21 20 20 18 17 17 16 15 14 13 11 11 10 9 9 8 7 7 8 8 9 9 8 9 9 9 9 9 8 9 10
26 28 28 29 29 25 23 24 28 30 30 30 30 28 26 24 26 28 28 27 26 25 23 22 22 20 19 19 19 19 20 19 16 15 17 18 18 17 17 17 16 15 14 13 13 13 12 12 12 12 12 10 9 8 8 8 8 8 8 8 9 10 11
25 26 27 28 28 25 23 23 25 27 28 28 28 26 23 22 23 24 24 24 23 23 21 19 19 19 18 17 17 17 16 16 14 13 15 18 18 18 19 19 18 17 16 15 15 15 16 15 15 15 13 12 11 10 9 9 8 8 8 10 10 11 11

ECMWFFLT1_925_spd_069.txt.gz
Wind_Speed
14 14 14 15 17 18 20 22 20 19 20 22 27 27 24 22 23 25 24 21 20 18 18 22 23 23 22 21 20 20 17 16 17 16 15 15 16 14 12 9 5 4 9 8 6 7 6 5 8 8 8 8 8 8 9 9 9 8 7 5 4 3 2
15 13 11 11 13 15 17 20 19 20 20 21 24 23 21 21 21 23 22 20 20 19 18 20 22 23 22 22 22 21 19 18 19 19 16 14 16 15 14 12 7 6 8 6 6 8 5 4 6 7 8 7 7 8 9 9 8 8 7 5 5 5 4
14 12 10 10 13 15 15 16 18 20 20 20 20 18 19 22 22 21 20 19 20 20 19 20 21 22 22 21 20 20 20 19 20 21 17 14 15 14 16 15 11 9 9 6 7 8 5 4 5 7 10 10 9 9 9 8 8 8 7 6 6 6 5
10 9 10 11 13 14 14 14 16 17 18 17 17 16 18 22 22 20 18 19 21 19 19 20 21 22 21 19 18 18 19 20 22 22 17 15 14 14 16 18 14 12 11 8 9 10 8 5 4 6 10 11 10 9 9 9 8 8 7 7 7 7 6
8 8 10 11 13 13 13 13 13 15 15 13 13 15 16 18 20 19 17 20 22 20 19 20 22 23 20 18 18 17 16 20 23 20 16 16 15 14 16 19 18 14 13 10 8 9 9 6 5 6 9 11 10 8 9 9 9 8 8 7 7 8 8
10 11 11 12 13 14 13 11 12 14 15 14 14 14 14 15 16 15 15 18 21 22 22 22 24 24 23 22 20 17 16 19 20 18 16 16 17 16 16 18 19 17 14 11 9 8 8 7 6 6 8 10 9 9 9 10 10 9 8 8 8 9 9
11 10 10 11 12 14 13 11 13 14 15 17 17 15 15 18 18 17 17 18 19 21 23 23 24 25 26 26 21 18 17 18 21 21 18 17 18 17 16 18 20 18 15 14 11 9 9 9 7 7 9 9 8 9 10 10 11 10 8 9 9 9 10
11 10 9 10 11 12 12 11 13 13 12 15 18 17 16 18 21 21 21 22 21 22 23 24 25 25 25 23 21 20 18 17 22 25 22 19 18 18 19 20 19 18 18 18 15 11 11 10 8 9 11 8 7 8 8 9 11 11 10 10 10 10 10
10 10 9 9 10 11 11 12 13 13 11 12 16 19 18 17 19 21 22 24 24 23 23 23 24 24 24 22 21 20 19 17 20 23 22 21 20 20 20 18 16 17 19 21 17 12 12 10 9 10 11 10 7 6 7 7 9 11 11 11 11 12 12
8 8 9 9 10 12 12 12 12 12 10 10 13 17 18 16 18 20 22 23 23 23 23 21 20 20 22 24 21 18 18 18 19 21 21 20 19 20 21 18 16 17 18 20 18 15 13 12 10 10 11 11 9 6 6 6 8 10 13 14 12 12 15
7 8 8 8 9 10 11 11 11 11 11 11 12 15 16 17 18 20 22 23 23 23 23 22 21 19 19 22 22 19 18 17 18 20 20 18 17 19 21 19 18 18 17 19 19 16 15 13 12 12 11 11 10 8 7 6 6 9 12 14 12 11 15
8 7 8 8 9 10 10 10 11 12 13 13 13 13 14 17 19 19 21 23 24 24 25 25 25 23 21 21 19 18 17 16 19 19 17 18 18 18 20 20 18 17 17 18 18 17 16 15 13 12 11 11 11 10 9 6 5 7 9 12 13 11 14
10 8 8 8 9 9 9 10 11 12 12 13 12 13 14 16 18 18 19 23 25 25 24 24 25 25 23 21 18 16 17 18 19 17 15 17 17 16 19 20 18 17 16 16 16 15 16 16 14 13 11 12 11 11 11 9 6 5 7 10 11 12 15
12 10 9 9 9 9 9 10 11 12 12 13 13 13 14 14 16 17 18 21 25 25 24 24 25 23 20 20 19 16 17 19 19 15 14 17 17 17 20 19 16 17 17 16 14 13 14 16 16 14 12 11 12 12 11 10 8 5 7 9 10 12 16
14 13 10 8 9 9 9 9 10 12 12 13 12 12 13 13 14 15 17 20 23 25 25 25 24 23 22 21 19 16 17 21 20 16 15 18 19 20 20 17 15 17 17 15 14 13 14 16 15 14 13 12 12 12 13 11 9 7 6 8 10 12 16
17 16 13 10 10 10 10 10 10 12 13 13 12 13 14 14 14 15 16 21 25 26 26 25 23 24 24 23 20 18 18 19 20 19 17 18 19 20 20 17 16 17 16 15 14 14 15 16 15 13 13 14 13 12 13 12 10 8 6 8 10 11 14
20 18 16 14 13 12 12 11 12 12 12 12 12 12 15 16 15 15 17 21 26 27 27 26 24 23 23 22 21 21 20 19 20 21 20 19 19 20 20 17 17 18 16 14 14 14 15 16 15 14 13 14 13 12 13 13 11 9 8 8 9 10 12
21 21 20 18 16 15 14 13 13 12 12 12 12 11 14 16 15 16 18 21 26 28 27 26 24 23 22 21 22 22 21 21 22 21 19 19 20 21 20 18 18 19 17 15 15 14 14 14 14 14 14 14 13 12 13 14 12 10 10 9 9 10 12
20 20 21 21 19 17 17 15 14 13 13 13 12 12 14 16 16 17 19 21 25 28 28 26 24 24 23 21 21 22 22 22 21 20 19 19 19 21 21 18 18 19 19 17 17 15 14 14 14 14 15 15 13 13 13 14 13 12 12 10 9 10 12
21 21 21 22 20 19 18 17 15 15 14 14 14 13 14 16 17 18 18 19 23 28 29 27 25 25 24 22 22 22 22 21 21 20 20 19 19 19 20 19 18 20 20 18 18 17 16 15 15 15 16 15 14 13 13 13 14 13 13 11 10 9 11
22 23 22 22 21 20 18 17 16 16 15 14 14 14 14 16 17 18 18 18 21 28 30 27 27 26 24 23 22 22 22 21 21 20 19 18 18 19 19 19 19 20 19 18 18 18 17 16 14 14 15 16 15 14 13 12 13 13 13 12 11 9 9
21 22 23 24 25 23 20 18 17 16 16 16 16 15 15 18 18 19 19 18 21 28 29 28 28 27 25 24 23 23 22 21 20 19 17 16 17 18 18 16 16 18 18 17 16 16 17 16 15 14 15 17 17 15 13 12 13 14 13 13 12 10 10
21 23 23 24 26 26 22 20 18 17 17 18 18 16 16 18 19 20 20 18 21 28 29 28 28 27 25 24 23 23 22 21 19 18 19 18 15 14 15 13 13 15 15 14 14 14 14 14 15 14 15 16 17 15 14 13 14 15 14 14 13 10 8
23 24 23 23 24 26 25 21 18 18 17 19 20 18 17 19 20 21 20 18 23 29 29 27 28 26 24 23 22 22 22 20 19 19 19 19 16 14 14 14 14 14 14 13 13 13 13 13 14 15 16 16 16 16 15 14 14 15 14 14 11 11 12
24 24 24 24 23 25 26 23 19 17 17 19 21 20 20 22 22 22 21 21 26 30 28 27 28 26 24 23 21 21 21 20 20 20 19 20 19 17 16 16 15 14 13 13 13 13 13 13 14 15 16 16 16 17 18 17 16 15 14 13 10 13 18
24 25 25 24 23 23 24 24 22 20 18 17 17 19 22 24 23 21 23 25 28 28 27 27 28 27 25 22 20 20 20 20 20 20 20 20 20 19 18 17 16 15 13 13 12 13 13 14 14 15 15 16 17 18 19 20 19 17 15 13 12 14 18
23 25 25 24 23 22 21 21 21 21 19 16 13 11 14 20 22 21 21 24 25 26 26 26 27 27 25 22 20 20 20 20 20 20 20 21 20 19 19 19 18 16 14 13 13 13 14 15 15 15 15 15 15 16 18 19 19 17 15 11 10 13 16
24 25 25 24 23 23 21 20 20 20 19 16 12 8 5 9 15 17 18 20 21 21 22 24 25 26 24 22 21 20 20 19 20 20 21 22 21 21 20 20 19 17 15 14 13 13 14 16 16 15 14 12 11 12 13 14 15 16 16 12 10 12 14
23 24 25 25 24 23 22 21 20 18 17 16 13 9 6 2 4 9 12 16 17 16 15 17 21 22 22 22 22 21 20 19 19 20 21 22 22 22 21 20 18 17 16 15 13 12 13 15 16 16 15 14 12 10 8 7 8 11 13 13 11 10 10
22 23 24 25 25 24 22 21 19 18 17 17 16 14 11 8 5 3 7 9 10 10 10 12 15 17 20 22 22 22 21 20 20 20 21 22 23 22 21 20 18 17 17 16 14 13 13 15 17 19 20 20 20 20 19 16 14 13 14 16 16 15 14
20 22 23 23 23 23 22 20 19 17 17 18 17 17 16 15 13 11 10 9 9 9 8 9 12 16 18 20 22 23 23 23 22 22 22 22 23 23 22 20 20 19 18 17 17 16 16 17 20 23 24 24 25 25 24 23 22 22 21 21 20 19 17
20 21 23 23 22 22 22 21 20 19 20 20 20 20 20 20 20 20 18 17 16 15 14 12 12 15 17 19 21 23 24 25 25 24 23 23 22 22 22 21 21 21 20 20 21 21 19 17 18 20 21 22 25 27 25 24 24 23 22 21 19 18 16
24 21 22 23 23 23 22 22 23 25 26 26 26 24 24 24 25 25 23 24 24 21 19 16 13 12 14 17 21 24 26 27 28 26 24 23 22 21 21 21 21 22 23 23 23 22 18 14 15 17 19 20 24 26 25 23 22 21 21 21 20 19 18
27 25 24 24 24 25 24 24 26 28 29 30 31 29 26 26 28 28 26 28 32 29 23 18 15 12 11 14 18 21 23 26 28 29 27 24 23 22 20 20 19 20 22 23 22 19 17 15 16 18 19 20 22 25 25 24 23 22 22 22 20 19 17
26 26 26 26 26 26 24 25 28 29 30 32 33 33 29 26 27 28 27 31 37 36 29 23 19 15 12 12 13 16 19 22 25 29 28 26 25 23 21 19 18 16 17 19 19 17 16 16 17 18 19 20 23 25 26 25 23 20 19 17 16 15 14
24 24 25 26 27 27 25 24 26 26 27 29 31 31 29 26 27 29 32 35 37 36 33 30 27 22 17 13 12 13 17 19 22 27 29 28 26 25 23 21 19 16 15 16 17 16 16 16 17 17 19 21 23 25 25 24 21 17 15 14 13 13 12
23 23 23 23 24 26 27 25 22 21 21 23 24 26 27 27 28 30 32 34 33 32 33 32 31 28 23 18 17 16 17 19 21 26 30 31 29 28 27 25 22 19 18 18 19 19 19 18 19 20 21 22 23 22 22 21 20 17 16 14 13 12 11

ECMWFFLT1_925_spd_072.txt.gz
Wind_Speed
10 10 10 9 9 10 11 13 15 15 16 18 20 21 24 24 22 23 24 23 22 20 17 18 20 19 17 16 18 17 16 17 17 15 14 13 14 15 15 13 10 8 7 6 6 4 4 5 7 9 10 12 12 12 12 11 11 10 8 8 8 7 6
8 9 8 8 8 9 11 12 12 13 15 18 21 21 22 23 23 22 22 23 23 21 19 20 20 19 18 18 19 18 17 17 18 20 19 17 17 16 15 15 13 11 10 9 7 6 6 5 6 8 10 12 12 13 13 11 10 10 9 8 8 8 7
8 9 9 9 9 9 11 11 10 11 13 16 18 18 18 20 22 21 20 19 19 21 22 20 18 18 19 19 20 18 18 19 20 23 23 20 19 18 16 15 14 13 11 10 9 8 8 7 5 7 12 13 11 12 13 12 11 11 10 9 9 9 7
8 8 9 11 11 10 11 11 10 10 10 12 14 15 15 17 19 19 19 16 15 19 21 19 19 19 17 17 18 17 18 22 22 22 21 20 18 18 17 15 14 13 12 11 10 10 9 7 6 6 11 12 11 12 13 13 12 12 11 10 9 9 9
8 8 9 11 12 11 11 11 9 9 9 10 11 12 14 16 17 17 17 15 16 20 23 21 20 19 17 16 17 17 18 21 22 20 20 20 18 18 17 14 14 14 13 12 10 9 9 8 7 6 8 10 10 10 12 13 13 12 12 11 10 10 10
7 8 10 11 12 12 11 10 8 8 10 11 12 12 13 14 15 16 17 17 19 23 24 22 20 21 21 18 16 18 18 20 23 22 20 19 18 19 17 15 15 14 14 12 10 9 9 9 9 7 8 10 9 9 10 11 12 12 11 11 10 11 10
8 9 10 11 11 11 11 9 8 9 10 11 13 14 12 11 13 16 17 17 21 24 23 21 21 21 21 19 17 19 19 19 22 22 20 18 17 18 18 16 16 15 15 14 11 10 10 10 9 8 8 9 9 9 10 11 12 12 11 11 11 11 11
8 10 10 10 11 11 10 10 9 10 10 10 12 13 12 11 12 14 16 18 18 19 21 22 22 22 21 21 21 20 19 19 20 20 19 19 18 19 19 16 15 15 15 14 13 13 12 11 10 10 10 8 7 8 8 10 12 12 12 11 11 12 12
10 11 10 10 11 11 11 10 10 11 11 11 11 12 12 12 12 12 15 18 17 16 20 23 23 23 22 21 21 20 19 20 20 19 19 19 18 19 19 16 15 15 15 15 15 14 13 12 11 11 12 10 8 7 7 7 9 11 13 13 12 12 13
12 12 12 12 12 12 11 10 11 12 12 11 11 11 12 13 14 13 14 18 20 19 20 21 20 21 20 20 20 18 17 19 20 20 20 19 19 19 19 18 17 15 14 15 15 15 13 12 12 12 13 13 10 7 6 6 7 10 13 14 13 13 15
12 12 11 12 12 12 12 11 11 12 12 11 11 11 11 13 15 15 15 17 20 21 21 20 18 18 19 20 20 18 16 17 20 21 20 19 18 17 17 18 18 17 16 16 17 17 15 13 13 13 13 13 12 10 7 6 7 10 14 15 13 14 16
13 12 11 10 11 11 12 12 12 13 12 12 12 12 12 14 15 15 15 16 19 21 22 21 19 17 19 20 21 21 19 18 20 20 18 18 17 16 17 17 17 18 18 18 19 19 19 18 16 15 14 13 13 12 10 7 5 8 12 14 14 13 16
13 12 12 11 11 11 11 11 12 13 13 13 13 13 13 14 15 15 15 16 17 20 21 22 20 18 18 19 19 20 21 20 20 20 20 18 17 17 17 17 17 18 18 18 18 18 19 20 17 15 14 14 13 12 11 10 6 7 8 11 13 13 15
14 13 13 12 12 11 11 11 11 12 14 14 14 14 13 13 14 14 15 15 16 19 21 22 20 18 18 19 18 18 19 19 19 20 21 21 20 18 17 18 18 19 21 20 19 18 18 18 17 15 14 14 14 13 12 12 9 8 8 8 11 13 14
15 15 15 13 12 12 11 11 11 11 13 14 15 15 15 14 14 14 15 16 17 18 20 20 19 18 20 20 19 18 19 20 20 21 22 23 24 21 18 18 18 19 22 23 22 19 17 17 16 16 15 14 14 14 13 13 11 9 10 9 11 13 14
16 16 16 15 14 13 13 12 12 12 12 13 14 16 16 15 14 14 15 16 17 18 19 19 18 19 20 21 21 21 21 21 20 21 23 23 23 21 18 18 19 21 23 24 22 19 17 17 17 16 16 15 14 14 14 14 13 11 12 12 12 13 15
17 17 17 16 16 15 14 13 13 13 13 13 14 15 15 15 15 15 16 16 17 18 19 19 19 19 21 21 22 22 21 22 21 23 26 24 20 22 22 20 21 23 23 22 21 19 17 17 17 16 16 16 15 14 13 14 13 12 11 12 13 14 16
19 19 18 17 17 16 15 15 14 14 14 14 15 15 15 15 15 16 17 17 19 20 20 19 20 21 22 21 21 21 21 21 21 24 28 25 22 24 24 22 23 24 23 22 20 18 18 18 18 17 17 16 16 15 14 14 14 13 13 12 13 13 14
21 21 20 19 18 17 16 15 14 14 14 15 16 16 15 15 16 17 17 18 20 21 21 20 20 21 22 22 21 22 22 21 20 23 26 23 22 22 20 21 24 23 21 21 20 19 19 19 18 18 17 16 16 16 15 14 14 15 15 14 14 13 13
21 22 21 20 19 18 17 16 15 14 14 14 15 15 14 15 16 17 17 19 20 19 19 20 20 21 22 22 21 22 24 23 21 23 25 23 21 21 18 19 23 24 22 21 20 20 19 19 19 18 17 17 16 16 15 15 15 16 16 16 15 15 14
21 22 22 21 20 19 18 17 17 16 14 14 15 15 14 15 16 18 18 19 19 18 18 18 19 21 22 22 22 23 24 23 22 22 23 22 20 19 17 18 21 22 21 20 20 20 18 18 18 18 18 18 17 16 16 16 16 17 18 17 16 16 16
21 22 22 22 22 20 19 19 18 17 16 15 14 14 15 16 16 19 19 18 18 20 19 19 19 21 22 22 23 23 23 22 22 22 22 20 19 17 16 18 20 19 19 19 21 21 19 18 17 16 16 17 18 18 17 17 18 18 18 18 16 16 17
22 22 23 23 23 22 21 20 19 19 19 17 15 13 15 16 16 18 18 17 18 19 20 20 20 21 23 23 23 24 23 22 23 23 21 19 17 15 16 17 18 18 19 19 19 20 20 19 18 16 15 15 16 15 16 17 18 18 19 19 16 16 17
22 23 23 24 24 23 23 21 20 20 20 19 19 16 14 15 16 17 18 17 17 18 20 20 20 23 25 26 26 25 24 24 23 21 19 17 16 15 16 16 15 16 19 19 18 18 18 18 19 19 17 15 14 14 15 17 16 17 18 14 10 10 10
23 23 24 24 24 24 24 23 22 22 20 21 21 19 17 16 15 17 18 18 17 18 20 21 20 23 27 30 30 27 25 23 21 19 18 18 17 15 14 15 14 14 15 17 17 17 18 19 19 19 19 17 17 17 16 16 14 13 13 8 7 8 8
23 24 24 24 24 24 24 24 24 23 21 21 21 20 19 18 16 15 16 17 17 18 20 20 20 22 25 30 32 29 25 22 20 19 18 17 17 15 14 15 15 13 14 17 16 15 17 19 18 19 19 18 19 19 18 18 16 13 11 8 9 14 15
24 24 24 24 24 24 24 24 24 22 21 21 21 20 20 20 18 15 13 13 14 16 18 20 22 24 25 28 31 31 27 20 17 18 17 16 16 15 15 16 15 13 15 18 15 13 15 17 17 17 15 13 13 14 16 17 18 15 13 9 7 12 14
24 24 24 23 23 24 24 24 23 22 21 20 20 19 18 19 19 17 14 12 11 11 15 20 23 26 26 27 28 29 26 20 17 18 18 17 16 15 15 16 17 17 16 17 16 15 15 14 14 13 11 9 9 10 13 15 15 13 12 10 8 10 12
23 23 23 23 24 24 24 24 23 21 20 19 18 18 17 17 18 17 15 12 10 9 12 17 21 24 24 25 26 25 22 20 20 21 19 18 17 16 15 14 16 18 17 16 17 17 15 13 12 12 12 10 9 10 12 13 13 12 11 12 12 12 13
22 23 23 24 24 23 23 23 22 21 20 20 19 18 17 16 17 17 16 13 10 9 10 13 16 20 22 24 25 24 21 20 22 23 21 19 17 17 16 13 12 14 15 16 17 16 15 14 13 13 13 11 9 8 7 7 9 11 12 13 13 13 13
22 22 23 23 23 23 22 22 22 21 20 20 20 19 18 17 17 16 17 16 13 9 8 9 11 15 20 22 23 23 21 21 23 23 21 20 18 19 20 18 14 12 14 17 17 15 15 14 12 13 13 13 12 12 11 13 14 13 12 12 13 12 12
22 22 22 22 21 21 21 21 21 20 20 20 20 19 19 19 18 17 17 17 15 13 10 7 6 9 15 20 22 22 21 21 23 23 21 19 18 18 18 18 16 15 17 18 16 16 16 14 12 13 14 14 14 14 14 16 19 19 18 17 17 17 17
22 22 22 21 20 19 19 19 19 19 19 20 20 19 19 20 20 20 19 19 18 18 16 12 7 4 9 16 19 20 21 19 19 20 20 18 17 16 15 14 13 15 17 18 17 18 17 15 14 14 14 14 16 17 16 15 16 17 18 18 19 19 18
21 21 21 21 20 20 19 19 19 18 18 18 19 19 19 20 21 20 21 23 23 22 19 16 13 7 4 11 14 17 18 16 17 20 20 17 17 17 15 13 13 16 19 20 19 18 16 16 16 16 16 16 18 21 21 20 19 19 20 20 19 18 16
21 20 20 20 20 20 20 19 20 19 18 17 18 18 19 21 21 21 22 25 27 27 25 20 18 15 10 12 13 13 14 15 17 20 21 19 17 17 15 14 14 17 20 21 20 18 16 16 16 15 15 17 20 23 24 22 20 18 18 16 15 14 13
21 21 21 20 20 20 20 19 20 21 20 19 19 18 18 20 23 23 23 24 25 28 30 27 23 21 19 18 17 15 15 15 16 18 20 20 18 17 17 15 14 15 18 19 18 15 13 13 14 14 16 19 22 22 20 17 14 13 13 12 11 11 11
21 21 22 21 21 21 21 19 19 20 21 21 20 19 18 19 22 23 23 22 22 24 28 29 28 28 27 27 26 23 21 20 18 19 22 23 22 21 20 18 16 14 15 15 14 13 13 14 16 19 21 22 21 16 13 12 11 11 11 10 10 10 10

ECMWFFLT1_925_spd_075.txt.gz
Wind_Speed
6 6 6 7 9 10 11 12 12 12 13 14 15 16 17 17 19 22 23 24 24 24 25 27 29 29 26 24 24 24 21 17 14 13 13 14 14 13 14 14 12 10 8 8 9 7 5 6 9 12 13 13 13 14 14 13 13 12 11 11 11 11 9
7 7 7 8 9 10 11 12 12 12 12 14 15 16 18 17 18 21 22 23 24 26 29 28 29 30 27 24 25 24 20 15 14 14 13 16 18 14 14 16 14 13 12 11 13 12 8 6 6 8 10 12 11 13 15 14 13 13 12 12 11 10 9
8 9 9 9 10 10 11 12 12 12 12 13 13 14 16 16 17 19 19 22 24 26 27 26 28 30 28 26 25 23 21 18 15 15 15 17 18 14 14 16 16 14 11 10 13 14 10 7 6 6 10 12 10 12 15 16 15 14 13 13 11 10 10
10 11 11 11 12 12 12 13 12 11 11 12 12 12 12 13 15 16 17 19 21 21 21 25 29 29 27 27 26 22 20 21 20 19 19 16 15 14 14 17 17 14 12 11 13 14 11 8 6 5 9 13 12 12 14 17 17 15 14 14 12 11 11
11 12 12 13 13 13 14 14 13 12 11 11 11 11 11 12 13 14 14 16 19 19 20 25 30 30 27 27 28 26 21 22 23 23 22 18 15 14 14 17 18 14 14 16 13 12 13 10 7 6 8 12 10 10 14 18 17 16 15 14 14 13 12
12 12 13 14 14 14 14 13 14 15 13 11 11 11 12 11 11 13 13 14 17 19 21 24 27 30 29 26 28 28 24 22 25 24 22 20 19 18 15 16 19 16 16 18 15 13 14 10 8 7 10 13 10 9 13 16 15 15 15 15 15 15 13
13 14 15 15 15 14 14 13 15 18 16 13 11 11 12 11 11 13 13 13 14 17 21 25 26 29 30 26 26 27 24 22 24 25 23 22 21 22 17 14 17 20 19 19 17 16 15 11 11 10 8 10 10 10 11 13 14 14 15 16 16 15 14
14 16 17 17 16 15 14 14 15 17 16 15 13 12 11 11 12 13 13 14 14 15 20 24 27 28 26 23 23 25 24 22 22 22 23 22 20 22 21 17 17 19 20 19 18 17 16 14 13 12 9 7 7 9 9 12 16 17 16 16 16 16 15
15 16 18 19 17 16 15 14 14 17 17 16 16 15 13 12 12 12 13 15 15 15 18 23 25 24 22 22 21 24 25 22 19 20 21 22 21 22 24 22 19 17 19 20 19 19 18 15 13 11 10 10 8 7 7 8 11 14 16 16 15 16 16
16 16 18 19 19 17 15 14 13 15 17 17 16 17 16 14 12 12 13 14 15 16 18 21 23 21 21 22 23 25 25 21 20 20 20 21 22 22 21 22 20 18 21 23 20 19 18 13 12 11 10 12 11 7 6 7 7 10 15 17 15 16 17
16 16 17 19 20 18 16 16 14 14 16 18 17 16 17 16 13 12 14 15 15 17 18 20 21 22 23 23 23 24 24 22 21 18 18 20 22 21 21 22 21 19 22 24 20 21 20 15 12 11 11 14 13 10 7 6 7 10 15 17 15 15 17
15 16 17 18 20 19 19 19 18 16 16 18 19 18 18 17 14 13 15 15 16 17 18 19 21 23 24 23 23 22 21 21 20 18 20 21 21 23 23 24 24 22 21 23 21 21 22 18 13 13 14 14 12 12 11 5 4 9 12 14 15 15 16
16 16 16 18 19 19 20 21 20 17 16 17 18 20 20 18 16 15 16 16 16 17 18 19 21 24 24 23 23 23 20 20 20 19 21 21 21 23 23 24 26 23 21 22 22 21 21 18 15 15 16 14 13 14 14 7 4 6 9 11 14 16 16
17 17 17 18 18 18 19 21 21 20 18 17 17 20 20 18 16 16 17 17 17 17 17 18 20 23 24 24 24 23 21 20 20 18 18 20 22 24 24 25 24 22 22 22 21 21 20 18 16 17 18 17 15 16 17 15 9 8 10 10 12 16 19
17 18 19 18 18 19 20 20 20 21 20 20 19 20 20 18 17 17 18 19 19 18 18 19 19 22 24 26 25 23 21 21 22 20 18 20 24 24 25 25 25 24 24 23 22 21 21 19 18 19 19 18 18 18 19 16 11 9 10 11 13 15 19
18 19 20 18 18 20 20 20 20 20 21 21 21 22 21 19 18 18 20 21 20 20 20 20 20 20 22 25 26 24 22 22 24 25 23 23 24 23 22 24 27 28 26 26 26 23 20 19 19 19 18 19 21 21 19 15 12 11 11 13 16 17 18
19 20 20 19 20 20 21 20 20 20 21 21 21 22 23 21 19 20 23 22 19 20 21 21 22 22 22 24 25 24 24 24 25 26 26 25 25 24 23 23 24 26 26 27 28 24 19 19 21 22 21 22 23 22 19 16 15 15 14 14 16 18 18
20 21 21 21 21 21 21 20 21 21 21 22 22 22 23 22 20 20 22 22 20 19 20 22 23 23 25 26 25 24 24 24 24 24 25 26 26 25 24 24 25 26 26 25 25 24 22 20 20 21 21 24 25 23 19 17 17 17 16 15 16 17 17
21 21 21 21 21 21 21 21 21 22 21 22 23 23 23 22 22 22 22 22 20 20 20 22 22 22 24 25 24 22 21 21 22 23 24 26 26 24 22 23 25 27 26 24 25 26 24 21 19 19 21 26 26 21 16 14 16 17 16 16 16 16 17
21 21 22 22 22 21 21 21 21 22 22 22 23 24 24 24 23 23 23 23 21 20 20 21 21 21 22 23 22 20 18 19 22 23 23 24 24 22 21 22 22 23 23 22 23 24 21 19 19 18 20 23 19 16 15 15 16 17 17 17 17 17 17
21 21 22 22 22 22 22 22 22 22 22 23 23 24 25 26 25 24 23 23 22 21 21 22 22 21 22 24 24 21 20 20 23 24 23 23 22 21 24 25 24 24 24 20 19 21 20 19 18 17 17 17 13 9 11 13 14 15 17 17 15 15 16
21 21 22 22 22 23 23 23 23 23 23 23 23 24 25 25 26 26 25 23 21 21 22 24 22 21 22 23 23 24 24 22 21 22 22 22 21 20 24 26 25 26 26 23 21 24 24 22 21 17 15 15 15 11 7 8 11 14 14 12 11 13 14
21 21 22 22 23 23 24 23 23 24 24 24 24 24 25 25 26 27 26 24 22 22 22 22 22 21 22 23 23 24 23 19 18 20 20 20 19 19 22 24 25 26 25 24 25 26 25 24 23 20 16 16 18 15 11 10 12 12 9 5 9 11 10
21 21 22 23 23 23 24 24 24 24 24 25 25 24 24 25 25 26 26 25 24 24 22 21 23 25 24 23 22 23 21 18 21 23 23 22 19 18 21 22 23 23 22 23 26 27 24 22 22 23 20 17 18 17 14 13 12 11 7 3 8 13 9
21 22 22 23 23 23 24 25 25 25 25 25 26 25 25 25 25 25 25 26 25 24 24 22 20 22 23 24 23 23 22 21 23 24 23 22 20 18 19 19 19 20 21 24 28 27 26 24 22 23 20 16 16 17 17 15 12 11 11 7 10 16 15
21 22 22 23 23 23 23 25 25 25 25 25 25 25 25 25 25 25 26 27 27 25 24 23 22 19 18 21 22 23 24 24 23 22 22 22 21 20 19 17 18 21 22 25 27 26 26 25 23 22 20 17 16 16 16 16 13 12 12 10 10 14 16
21 22 23 23 23 23 24 25 25 25 25 25 25 25 25 25 25 25 26 27 27 27 26 25 26 24 20 18 18 20 23 25 23 22 23 24 23 24 23 20 21 23 23 26 26 23 21 22 22 21 20 17 14 13 13 13 12 11 10 10 10 11 12
21 22 22 23 23 24 25 25 25 25 25 25 25 24 24 25 25 25 26 27 27 29 28 28 28 27 24 23 20 19 20 22 22 22 23 24 25 25 24 21 21 23 23 24 24 21 17 17 18 19 18 15 11 11 12 12 11 11 11 12 12 10 10
21 22 22 22 23 23 24 25 25 25 24 25 25 24 24 25 25 25 26 27 28 30 30 30 30 29 27 25 23 23 21 21 22 24 23 22 22 23 22 20 21 21 20 19 20 20 19 16 15 16 16 13 10 10 12 13 13 12 12 14 14 12 12
21 21 22 23 23 23 23 23 24 24 25 25 25 25 24 25 25 25 25 27 28 30 31 30 30 30 28 25 23 23 21 20 22 24 23 19 15 15 16 18 20 19 15 15 17 19 20 18 17 17 16 14 11 8 9 11 12 12 11 12 14 15 15
21 21 22 22 23 23 23 23 23 24 24 24 25 25 25 25 25 24 24 26 27 29 31 31 30 30 27 24 21 19 18 19 21 21 18 13 9 12 13 14 18 19 15 14 18 20 19 18 15 15 16 16 12 9 8 10 12 12 12 13 15 16 16
21 21 22 22 22 22 22 23 24 23 22 22 23 25 25 25 25 25 24 25 27 29 31 31 31 30 26 22 18 16 14 14 14 13 13 12 10 12 13 13 16 19 18 17 19 21 19 15 11 11 14 15 13 11 12 12 13 14 13 13 13 13 11
21 21 22 22 22 22 21 22 23 24 23 22 22 23 24 24 26 26 25 25 26 29 31 32 33 31 25 20 16 12 9 6 7 9 10 11 12 11 12 12 13 16 17 17 18 20 18 14 11 11 12 13 14 13 14 14 14 14 14 14 14 13 13
21 21 21 22 22 22 22 22 22 23 23 23 22 23 23 23 25 26 25 26 27 30 33 35 37 35 29 22 15 9 5 2 8 11 12 13 13 12 12 12 12 13 15 17 18 19 18 16 15 14 13 14 17 18 16 16 16 15 15 16 16 14 14
20 20 21 22 22 23 23 22 22 22 23 23 23 24 24 23 23 24 25 26 27 29 33 37 39 40 37 31 22 15 12 11 8 11 15 16 15 14 14 13 12 12 13 16 19 19 18 17 17 17 17 18 21 21 19 17 15 14 14 14 14 13 13
19 20 21 22 22 22 23 23 23 23 23 22 23 23 24 24 24 23 24 26 27 28 29 33 36 38 39 38 34 28 22 19 15 13 16 20 19 17 16 15 12 10 11 15 19 20 19 18 18 18 19 20 22 22 20 18 15 13 13 13 12 13 13
18 19 21 22 21 22 22 23 23 23 23 22 23 23 23 24 23 23 23 24 27 28 29 31 34 36 37 38 39 37 33 29 26 23 23 25 24 20 19 18 15 13 13 17 20 22 22 22 23 24 24 23 22 21 20 19 17 15 15 15 15 16 16